Private Wetterstation Sandau
Wetterdaten: Dienstag, 17.04.2012
Datum Zeit Temp. A. Feuchte A. Luftdruck Regen Wind Richtung Richtung Taupunkt Windchill
17.04.2012 00:01 4,1 C 66 % 1017,9 hPa 0,0 l/m 3,2 km/h (1 Bft) W-SW 247 -1,7 C 4,1 C
17.04.2012 00:06 3,9 C 66 % 1018,0 hPa 0,0 l/m 5,8 km/h (2 Bft) W 270 -1,9 C 2,5 C
17.04.2012 00:11 3,9 C 67 % 1017,9 hPa 0,0 l/m 4,3 km/h (1 Bft) NW 315 -1,7 C 3,9 C
17.04.2012 00:16 3,9 C 67 % 1017,9 hPa 0,0 l/m 6,1 km/h (2 Bft) W-NW 292 -1,7 C 2,4 C
17.04.2012 00:21 3,9 C 67 % 1018,0 hPa 0,0 l/m 6,5 km/h (2 Bft) W-NW 292 -1,7 C 2,3 C
17.04.2012 00:26 3,9 C 67 % 1018,0 hPa 0,0 l/m 8,6 km/h (2 Bft) W-NW 292 -1,7 C 1,7 C
17.04.2012 00:31 3,8 C 67 % 1017,8 hPa 0,0 l/m 6,8 km/h (2 Bft) W 270 -1,8 C 2,1 C
17.04.2012 00:36 3,8 C 68 % 1018,0 hPa 0,0 l/m 4,0 km/h (1 Bft) W 270 -1,6 C 3,8 C
17.04.2012 00:41 3,6 C 68 % 1018,1 hPa 0,0 l/m 6,5 km/h (2 Bft) W 270 -1,7 C 1,9 C
17.04.2012 00:46 3,6 C 68 % 1018,1 hPa 0,0 l/m 6,1 km/h (2 Bft) W-NW 292 -1,7 C 2,1 C
17.04.2012 00:51 3,6 C 69 % 1018,0 hPa 0,0 l/m 6,5 km/h (2 Bft) W 270 -1,5 C 1,9 C
17.04.2012 00:56 3,5 C 69 % 1018,1 hPa 0,0 l/m 7,2 km/h (2 Bft) W 270 -1,6 C 1,6 C
17.04.2012 01:01 3,5 C 69 % 1018,1 hPa 0,0 l/m 5,4 km/h (1 Bft) W 270 -1,6 C 2,2 C
17.04.2012 01:06 3,4 C 70 % 1018,0 hPa 0,0 l/m 8,3 km/h (2 Bft) W-NW 292 -1,5 C 1,2 C
17.04.2012 01:11 3,4 C 70 % 1018,0 hPa 0,0 l/m 4,3 km/h (1 Bft) W 270 -1,5 C 3,4 C
17.04.2012 01:16 3,4 C 70 % 1018,0 hPa 0,0 l/m 6,1 km/h (2 Bft) W-NW 292 -1,5 C 1,8 C
17.04.2012 01:21 3,3 C 70 % 1018,0 hPa 0,0 l/m 5,4 km/h (1 Bft) W-NW 292 -1,6 C 2,0 C
17.04.2012 01:26 3,3 C 71 % 1018,0 hPa 0,0 l/m 7,2 km/h (2 Bft) W 270 -1,4 C 1,4 C
17.04.2012 01:31 3,3 C 71 % 1018,0 hPa 0,0 l/m 6,5 km/h (2 Bft) W-SW 247 -1,4 C 1,6 C
17.04.2012 01:36 3,4 C 71 % 1018,0 hPa 0,0 l/m 1,8 km/h (1 Bft) W-NW 292 -1,3 C 3,4 C
17.04.2012 01:41 3,4 C 71 % 1018,1 hPa 0,0 l/m 2,5 km/h (1 Bft) W 270 -1,3 C 3,4 C
17.04.2012 01:46 3,4 C 71 % 1017,8 hPa 0,0 l/m 3,2 km/h (1 Bft) W-SW 247 -1,3 C 3,4 C
17.04.2012 01:51 3,3 C 71 % 1017,7 hPa 0,0 l/m 4,0 km/h (1 Bft) W-SW 247 -1,4 C 3,3 C
17.04.2012 01:56 3,3 C 71 % 1017,7 hPa 0,0 l/m 4,0 km/h (1 Bft) W-SW 247 -1,4 C 3,3 C
17.04.2012 02:01 3,2 C 71 % 1017,8 hPa 0,0 l/m 4,7 km/h (1 Bft) W-NW 292 -1,5 C 2,2 C
17.04.2012 02:06 3,1 C 71 % 1017,7 hPa 0,0 l/m 3,2 km/h (1 Bft) N-NW 337 -1,6 C 3,1 C
17.04.2012 02:11 3,1 C 71 % 1017,7 hPa 0,0 l/m 7,6 km/h (2 Bft) SW 225 -1,6 C 1,0 C
17.04.2012 02:16 3,0 C 71 % 1017,6 hPa 0,0 l/m 2,9 km/h (1 Bft) W-SW 247 -1,7 C 3,0 C
17.04.2012 02:21 2,9 C 71 % 1017,6 hPa 0,0 l/m 4,0 km/h (1 Bft) W 270 -1,8 C 2,9 C
17.04.2012 02:26 2,9 C 72 % 1017,4 hPa 0,0 l/m 6,8 km/h (2 Bft) W-NW 292 -1,6 C 1,0 C
17.04.2012 02:31 2,8 C 72 % 1017,3 hPa 0,0 l/m 5,8 km/h (2 Bft) W-NW 292 -1,7 C 1,3 C
17.04.2012 02:36 2,7 C 72 % 1017,3 hPa 0,0 l/m 0,0 km/h (0 Bft) W 270 -1,8 C 2,7 C
17.04.2012 02:41 2,6 C 73 % 1017,4 hPa 0,0 l/m 5,8 km/h (2 Bft) W 270 -1,7 C 1,0 C
17.04.2012 02:46 2,6 C 73 % 1017,3 hPa 0,0 l/m 7,2 km/h (2 Bft) NW 315 -1,7 C 0,6 C
17.04.2012 02:51 2,6 C 73 % 1017,4 hPa 0,0 l/m 8,3 km/h (2 Bft) W-NW 292 -1,7 C 0,2 C
17.04.2012 02:56 2,5 C 74 % 1017,2 hPa 0,0 l/m 6,5 km/h (2 Bft) W 270 -1,7 C 0,7 C
17.04.2012 03:01 2,4 C 74 % 1017,2 hPa 0,0 l/m 0,0 km/h (0 Bft) W-NW 292 -1,7 C 2,4 C
17.04.2012 03:06 2,4 C 74 % 1017,2 hPa 0,0 l/m 7,9 km/h (2 Bft) W 270 -1,7 C 0,1 C
17.04.2012 03:11 2,5 C 74 % 1017,1 hPa 0,0 l/m 4,0 km/h (1 Bft) W 270 -1,7 C 2,5 C
17.04.2012 03:16 2,5 C 74 % 1017,2 hPa 0,0 l/m 4,7 km/h (1 Bft) W-NW 292 -1,7 C 1,4 C
17.04.2012 03:21 2,4 C 74 % 1017,2 hPa 0,0 l/m 4,0 km/h (1 Bft) W 270 -1,7 C 2,4 C
17.04.2012 03:26 2,4 C 74 % 1016,9 hPa 0,0 l/m 0,0 km/h (0 Bft) W-SW 247 -1,7 C 2,4 C
17.04.2012 03:31 2,4 C 74 % 1016,9 hPa 0,0 l/m 9,7 km/h (2 Bft) W-SW 247 -1,7 C -0,4 C
17.04.2012 03:36 2,4 C 74 % 1017,0 hPa 0,0 l/m 3,6 km/h (1 Bft) W-SW 247 -1,7 C 2,4 C
17.04.2012 03:41 2,4 C 74 % 1016,9 hPa 0,0 l/m 5,8 km/h (2 Bft) W 270 -1,7 C 0,8 C
17.04.2012 03:46 2,3 C 75 % 1016,9 hPa 0,0 l/m 2,5 km/h (1 Bft) W 270 -1,7 C 2,3 C
17.04.2012 03:51 2,3 C 75 % 1016,9 hPa 0,0 l/m 9,4 km/h (2 Bft) W-SW 247 -1,7 C -0,4 C
17.04.2012 03:56 2,2 C 75 % 1016,7 hPa 0,0 l/m 5,0 km/h (1 Bft) W-SW 247 -1,8 C 0,9 C
17.04.2012 04:01 2,1 C 75 % 1016,8 hPa 0,0 l/m 2,5 km/h (1 Bft) W 270 -1,9 C 2,1 C
17.04.2012 04:06 2,1 C 75 % 1016,8 hPa 0,0 l/m 6,5 km/h (2 Bft) W-NW 292 -1,9 C 0,2 C
17.04.2012 04:11 1,9 C 76 % 1016,8 hPa 0,0 l/m 6,1 km/h (2 Bft) SW 225 -1,9 C 0,1 C
17.04.2012 04:16 1,9 C 76 % 1016,8 hPa 0,0 l/m 6,5 km/h (2 Bft) W-SW 247 -1,9 C -0,0 C
17.04.2012 04:21 1,9 C 76 % 1016,5 hPa 0,0 l/m 4,0 km/h (1 Bft) W-NW 292 -1,9 C 1,9 C
17.04.2012 04:26 1,9 C 76 % 1016,6 hPa 0,0 l/m 6,1 km/h (2 Bft) W-SW 247 -1,9 C 0,1 C
17.04.2012 04:31 1,9 C 76 % 1016,5 hPa 0,0 l/m 3,2 km/h (1 Bft) SW 225 -1,9 C 1,9 C
17.04.2012 04:36 1,9 C 76 % 1016,5 hPa 0,0 l/m 3,2 km/h (1 Bft) W-NW 292 -1,9 C 1,9 C
17.04.2012 04:41 1,8 C 76 % 1016,4 hPa 0,0 l/m 4,0 km/h (1 Bft) W-SW 247 -2,0 C 1,8 C
17.04.2012 04:46 1,8 C 76 % 1016,4 hPa 0,0 l/m 4,7 km/h (1 Bft) W 270 -2,0 C 0,6 C
17.04.2012 04:51 1,8 C 76 % 1016,2 hPa 0,0 l/m 2,2 km/h (1 Bft) W 270 -2,0 C 1,8 C
17.04.2012 04:56 1,8 C 77 % 1016,4 hPa 0,0 l/m 5,8 km/h (2 Bft) SW 225 -1,8 C 0,1 C
17.04.2012 05:01 1,7 C 77 % 1016,4 hPa 0,0 l/m 4,7 km/h (1 Bft) W 270 -1,9 C 0,5 C
17.04.2012 05:06 1,7 C 77 % 1016,4 hPa 0,0 l/m 4,7 km/h (1 Bft) W 270 -1,9 C 0,5 C
17.04.2012 05:11 1,6 C 77 % 1016,2 hPa 0,0 l/m 3,6 km/h (1 Bft) W-SW 247 -2,0 C 1,6 C
17.04.2012 05:16 1,6 C 77 % 1016,3 hPa 0,0 l/m 4,7 km/h (1 Bft) W 270 -2,0 C 0,4 C
17.04.2012 05:21 1,6 C 77 % 1016,2 hPa 0,0 l/m 6,1 km/h (2 Bft) W 270 -2,0 C -0,2 C
17.04.2012 05:26 1,6 C 77 % 1016,1 hPa 0,0 l/m 2,9 km/h (1 Bft) W 270 -2,0 C 1,6 C
17.04.2012 05:31 1,5 C 77 % 1016,1 hPa 0,0 l/m 8,3 km/h (2 Bft) W-SW 247 -2,1 C -1,1 C
17.04.2012 05:36 1,4 C 77 % 1016,1 hPa 0,0 l/m 4,7 km/h (1 Bft) W 270 -2,2 C 0,1 C
17.04.2012 05:41 1,4 C 77 % 1016,2 hPa 0,0 l/m 6,5 km/h (2 Bft) W-SW 247 -2,2 C -0,6 C
17.04.2012 05:46 1,4 C 78 % 1016,0 hPa 0,0 l/m 5,0 km/h (1 Bft) W 270 -2,0 C -0,0 C
17.04.2012 05:51 1,3 C 78 % 1016,0 hPa 0,0 l/m 8,6 km/h (2 Bft) W 270 -2,1 C -1,4 C
17.04.2012 05:56 1,3 C 78 % 1016,0 hPa 0,0 l/m 12,6 km/h (3 Bft) W-SW 247 -2,1 C -2,4 C
17.04.2012 06:01 1,3 C 78 % 1016,0 hPa 0,0 l/m 6,8 km/h (2 Bft) W-SW 247 -2,1 C -0,8 C
17.04.2012 06:06 1,3 C 78 % 1016,0 hPa 0,0 l/m 9,7 km/h (2 Bft) W-SW 247 -2,1 C -1,7 C
17.04.2012 06:11 1,3 C 78 % 1015,9 hPa 0,0 l/m 12,6 km/h (3 Bft) W-NW 292 -2,1 C -2,4 C
17.04.2012 06:16 1,3 C 78 % 1016,0 hPa 0,0 l/m 7,9 km/h (2 Bft) W-SW 247 -2,1 C -1,2 C
17.04.2012 06:21 1,3 C 78 % 1016,0 hPa 0,0 l/m 6,1 km/h (2 Bft) W-SW 247 -2,1 C -0,6 C
17.04.2012 06:26 1,3 C 78 % 1015,9 hPa 0,0 l/m 7,9 km/h (2 Bft) SW 225 -2,1 C -1,2 C
17.04.2012 06:31 1,2 C 79 % 1015,8 hPa 0,0 l/m 7,2 km/h (2 Bft) W-SW 247 -2,0 C -1,1 C
17.04.2012 06:36 1,2 C 79 % 1015,9 hPa 0,0 l/m 6,1 km/h (2 Bft) W-SW 247 -2,0 C -0,7 C
17.04.2012 06:41 1,1 C 79 % 1015,9 hPa 0,0 l/m 5,4 km/h (1 Bft) S 180 -2,1 C -0,5 C
17.04.2012 06:46 1,3 C 80 % 1015,8 hPa 0,0 l/m 10,4 km/h (2 Bft) W-SW 247 -1,8 C -1,9 C
17.04.2012 06:51 1,4 C 80 % 1015,9 hPa 0,0 l/m 4,7 km/h (1 Bft) S-SW 202 -1,7 C 0,1 C
17.04.2012 06:56 1,8 C 80 % 1015,9 hPa 0,0 l/m 7,2 km/h (2 Bft) W-SW 247 -1,3 C -0,4 C
17.04.2012 07:01 2,1 C 79 % 1015,9 hPa 0,0 l/m 9,7 km/h (2 Bft) W-SW 247 -1,2 C -0,7 C
17.04.2012 07:06 2,3 C 78 % 1015,9 hPa 0,0 l/m 7,6 km/h (2 Bft) W-SW 247 -1,1 C 0,1 C
17.04.2012 07:11 2,4 C 78 % 1016,0 hPa 0,0 l/m 6,8 km/h (2 Bft) SW 225 -1,0 C 0,5 C
17.04.2012 07:16 2,4 C 77 % 1015,9 hPa 0,0 l/m 7,6 km/h (2 Bft) SW 225 -1,2 C 0,2 C
17.04.2012 07:21 2,5 C 77 % 1015,9 hPa 0,0 l/m 3,6 km/h (1 Bft) W 270 -1,1 C 2,5 C
17.04.2012 07:26 2,6 C 77 % 1015,8 hPa 0,0 l/m 8,6 km/h (2 Bft) W-SW 247 -1,0 C 0,1 C
17.04.2012 07:31 2,7 C 77 % 1016,0 hPa 0,0 l/m 14,4 km/h (3 Bft) W-SW 247 -0,9 C -1,0 C
17.04.2012 07:36 2,8 C 77 % 1015,9 hPa 0,0 l/m 9,4 km/h (2 Bft) W-SW 247 -0,8 C 0,2 C
17.04.2012 07:41 2,9 C 76 % 1016,0 hPa 0,0 l/m 15,5 km/h (3 Bft) W-SW 247 -0,9 C -0,9 C
17.04.2012 07:46 2,9 C 77 % 1016,0 hPa 0,0 l/m 4,0 km/h (1 Bft) SW 225 -0,7 C 2,9 C
17.04.2012 07:51 3,1 C 76 % 1016,2 hPa 0,0 l/m 8,3 km/h (2 Bft) W 270 -0,7 C 0,8 C
17.04.2012 07:56 3,2 C 76 % 1016,0 hPa 0,0 l/m 5,4 km/h (1 Bft) S-SO 157 -0,6 C 1,9 C
17.04.2012 08:01 3,3 C 76 % 1015,9 hPa 0,0 l/m 8,6 km/h (2 Bft) W-SW 247 -0,5 C 1,0 C
17.04.2012 08:06 3,5 C 76 % 1015,9 hPa 0,0 l/m 6,5 km/h (2 Bft) W 270 -0,3 C 1,8 C
17.04.2012 08:11 3,6 C 75 % 1015,9 hPa 0,0 l/m 17,3 km/h (3 Bft) SW 225 -0,4 C -0,3 C
17.04.2012 08:16 3,8 C 75 % 1015,9 hPa 0,0 l/m 14,4 km/h (3 Bft) W 270 -0,2 C 0,4 C
17.04.2012 08:21 3,8 C 75 % 1015,8 hPa 0,0 l/m 6,8 km/h (2 Bft) W-SW 247 -0,2 C 2,1 C
17.04.2012 08:26 3,9 C 75 % 1015,9 hPa 0,0 l/m 13,3 km/h (3 Bft) W-SW 247 -0,1 C 0,7 C
17.04.2012 08:31 4,1 C 75 % 1015,8 hPa 0,0 l/m 7,9 km/h (2 Bft) SW 225 0,1 C 2,1 C
17.04.2012 08:36 4,2 C 75 % 1015,8 hPa 0,0 l/m 14,8 km/h (3 Bft) W 270 0,2 C 0,8 C
17.04.2012 08:41 4,3 C 75 % 1015,8 hPa 0,0 l/m 14,4 km/h (3 Bft) W-SW 247 0,3 C 1,0 C
17.04.2012 08:46 4,4 C 74 % 1015,8 hPa 0,0 l/m 7,6 km/h (2 Bft) SW 225 0,2 C 2,5 C
17.04.2012 08:51 4,6 C 74 % 1015,7 hPa 0,0 l/m 7,9 km/h (2 Bft) W 270 0,4 C 2,7 C
17.04.2012 08:56 4,6 C 73 % 1015,7 hPa 0,0 l/m 19,8 km/h (3 Bft) W-SW 247 0,2 C 0,6 C
17.04.2012 09:01 4,8 C 73 % 1015,6 hPa 0,0 l/m 14,4 km/h (3 Bft) W-SW 247 0,4 C 1,6 C
17.04.2012 09:06 5,0 C 73 % 1015,7 hPa 0,0 l/m 16,6 km/h (3 Bft) W-SW 247 0,6 C 1,5 C
17.04.2012 09:11 5,2 C 73 % 1015,7 hPa 0,0 l/m 4,3 km/h (1 Bft) W-NW 292 0,8 C 5,2 C
17.04.2012 09:16 5,3 C 72 % 1015,7 hPa 0,0 l/m 14,4 km/h (3 Bft) W 270 0,7 C 2,2 C
17.04.2012 09:21 5,6 C 72 % 1015,4 hPa 0,0 l/m 7,2 km/h (2 Bft) SW 225 1,0 C 4,1 C
17.04.2012 09:26 5,8 C 71 % 1015,5 hPa 0,0 l/m 5,0 km/h (1 Bft) S-SW 202 1,0 C 5,0 C
17.04.2012 09:31 5,9 C 71 % 1015,4 hPa 0,0 l/m 13,0 km/h (3 Bft) W-SW 247 1,1 C 3,2 C
17.04.2012 09:36 5,9 C 70 % 1015,5 hPa 0,0 l/m 17,6 km/h (3 Bft) W-SW 247 0,9 C 2,5 C
17.04.2012 09:41 6,1 C 70 % 1015,4 hPa 0,0 l/m 9,4 km/h (2 Bft) W-NW 292 1,0 C 4,1 C
17.04.2012 09:46 6,2 C 69 % 1015,4 hPa 0,0 l/m 3,6 km/h (1 Bft) W-NW 292 0,9 C 6,2 C
17.04.2012 09:51 6,2 C 69 % 1015,3 hPa 0,0 l/m 13,0 km/h (3 Bft) W 270 0,9 C 3,5 C
17.04.2012 09:56 6,2 C 69 % 1015,3 hPa 0,0 l/m 7,6 km/h (2 Bft) W-NW 292 0,9 C 4,6 C
17.04.2012 10:01 6,3 C 68 % 1015,2 hPa 0,0 l/m 6,1 km/h (2 Bft) W-SW 247 0,8 C 5,2 C
17.04.2012 10:06 6,4 C 68 % 1015,3 hPa 0,0 l/m 15,5 km/h (3 Bft) W-SW 247 0,9 C 3,4 C
17.04.2012 10:11 6,6 C 67 % 1015,0 hPa 0,0 l/m 11,2 km/h (2 Bft) NW 315 0,9 C 4,3 C
17.04.2012 10:16 6,7 C 66 % 1015,0 hPa 0,0 l/m 7,2 km/h (2 Bft) W-NW 292 0,8 C 5,3 C
17.04.2012 10:21 6,7 C 65 % 1015,0 hPa 0,0 l/m 7,6 km/h (2 Bft) W-SW 247 0,6 C 5,2 C
17.04.2012 10:26 6,8 C 65 % 1015,1 hPa 0,0 l/m 12,2 km/h (2 Bft) SW 225 0,7 C 4,4 C
17.04.2012 10:31 6,8 C 64 % 1015,0 hPa 0,0 l/m 7,6 km/h (2 Bft) W-SW 247 0,5 C 5,3 C
17.04.2012 10:36 6,9 C 64 % 1014,8 hPa 0,0 l/m 8,6 km/h (2 Bft) W 270 0,6 C 5,2 C
17.04.2012 10:41 7,2 C 64 % 1014,8 hPa 0,0 l/m 13,3 km/h (3 Bft) W-SW 247 0,9 C 4,7 C
17.04.2012 10:46 7,7 C 63 % 1014,8 hPa 0,0 l/m 22,7 km/h (4 Bft) W-SW 247 1,1 C 4,2 C
17.04.2012 10:51 7,9 C 62 % 1014,9 hPa 0,0 l/m 10,1 km/h (2 Bft) W 270 1,1 C 6,1 C
17.04.2012 10:56 7,8 C 60 % 1014,9 hPa 0,0 l/m 10,1 km/h (2 Bft) W-SW 247 0,5 C 6,0 C
17.04.2012 11:01 7,5 C 59 % 1014,7 hPa 0,0 l/m 7,2 km/h (2 Bft) SW 225 0,0 C 6,3 C
17.04.2012 11:06 7,6 C 60 % 1014,6 hPa 0,0 l/m 7,2 km/h (2 Bft) W-SW 247 0,3 C 6,4 C
17.04.2012 11:11 7,9 C 58 % 1014,4 hPa 0,0 l/m 6,1 km/h (2 Bft) W 270 0,2 C 7,0 C
17.04.2012 11:16 7,9 C 57 % 1014,4 hPa 0,0 l/m 11,9 km/h (2 Bft) W-SW 247 -0,1 C 5,8 C
17.04.2012 11:21 7,9 C 56 % 1014,5 hPa 0,0 l/m 10,1 km/h (2 Bft) W-SW 247 -0,3 C 6,1 C
17.04.2012 11:26 7,9 C 56 % 1014,3 hPa 0,0 l/m 9,0 km/h (2 Bft) W-NW 292 -0,3 C 6,3 C
17.04.2012 11:31 7,8 C 56 % 1014,3 hPa 0,0 l/m 11,5 km/h (2 Bft) NW 315 -0,4 C 5,7 C
17.04.2012 11:36 7,8 C 56 % 1014,3 hPa 0,0 l/m 11,5 km/h (2 Bft) W-NW 292 -0,4 C 5,7 C
17.04.2012 11:41 7,6 C 55 % 1014,2 hPa 0,0 l/m 6,1 km/h (2 Bft) W 270 -0,9 C 6,7 C
17.04.2012 11:46 7,6 C 55 % 1014,1 hPa 0,0 l/m 6,8 km/h (2 Bft) W-SW 247 -0,9 C 6,5 C
17.04.2012 11:51 7,6 C 54 % 1014,0 hPa 0,0 l/m 3,6 km/h (1 Bft) W-NW 292 -1,1 C 7,6 C
17.04.2012 11:56 7,6 C 53 % 1013,9 hPa 0,0 l/m 5,8 km/h (2 Bft) SW 225 -1,4 C 6,8 C
17.04.2012 12:01 7,7 C 54 % 1013,8 hPa 0,0 l/m 5,0 km/h (1 Bft) W 270 -1,0 C 7,1 C
17.04.2012 12:06 7,9 C 53 % 1013,8 hPa 0,0 l/m 5,0 km/h (1 Bft) W 270 -1,1 C 7,4 C
17.04.2012 12:11 8,1 C 53 % 1013,8 hPa 0,0 l/m 12,2 km/h (2 Bft) S-SW 202 -0,9 C 6,0 C
17.04.2012 12:16 8,5 C 52 % 1013,7 hPa 0,0 l/m 4,3 km/h (1 Bft) S-SW 202 -0,8 C 8,5 C
17.04.2012 12:21 8,7 C 50 % 1013,7 hPa 0,0 l/m 24,8 km/h (4 Bft) W 270 -1,1 C 5,3 C
17.04.2012 12:26 8,8 C 50 % 1013,6 hPa 0,0 l/m 9,7 km/h (2 Bft) W 270 -1,0 C 7,3 C
17.04.2012 12:31 9,1 C 50 % 1013,5 hPa 0,0 l/m 15,8 km/h (3 Bft) SW 225 -0,8 C 6,7 C
17.04.2012 12:36 9,3 C 49 % 1013,3 hPa 0,0 l/m 8,3 km/h (2 Bft) S-SW 202 -0,9 C 8,1 C
17.04.2012 12:41 9,4 C 49 % 1013,1 hPa 0,0 l/m 17,6 km/h (3 Bft) SW 225 -0,8 C 6,9 C
17.04.2012 12:46 9,3 C 48 % 1013,1 hPa 0,0 l/m 6,1 km/h (2 Bft) SW 225 -1,1 C 8,6 C
17.04.2012 12:51 9,4 C 49 % 1012,9 hPa 0,0 l/m 13,0 km/h (3 Bft) SO 135 -0,8 C 7,4 C
17.04.2012 12:56 9,5 C 47 % 1012,9 hPa 0,0 l/m 5,8 km/h (2 Bft) SW 225 -1,2 C 9,0 C
17.04.2012 13:01 9,5 C 48 % 1012,9 hPa 0,0 l/m 15,8 km/h (3 Bft) W 270 -1,0 C 7,2 C
17.04.2012 13:06 9,7 C 47 % 1012,8 hPa 0,0 l/m 11,2 km/h (2 Bft) W-SW 247 -1,1 C 8,1 C
17.04.2012 13:11 9,8 C 47 % 1012,7 hPa 0,0 l/m 4,3 km/h (1 Bft) S-SW 202 -1,0 C 9,8 C
17.04.2012 13:16 10,0 C 46 % 1012,6 hPa 0,0 l/m 5,8 km/h (2 Bft) S-SO 157 -1,1 C 9,5 C
17.04.2012 13:21 10,1 C 46 % 1012,7 hPa 0,0 l/m 6,5 km/h (2 Bft) W-NW 292 -1,0 C 10,1 C
17.04.2012 13:26 9,9 C 45 % 1012,5 hPa 0,0 l/m 8,6 km/h (2 Bft) W-SW 247 -1,5 C 8,8 C
17.04.2012 13:31 9,9 C 46 % 1012,4 hPa 0,0 l/m 8,3 km/h (2 Bft) SW 225 -1,2 C 8,8 C
17.04.2012 13:36 9,9 C 45 % 1012,4 hPa 0,0 l/m 14,8 km/h (3 Bft) W-SW 247 -1,5 C 7,8 C
17.04.2012 13:41 10,1 C 45 % 1012,2 hPa 0,0 l/m 10,8 km/h (2 Bft) S-SW 202 -1,3 C 10,1 C
17.04.2012 13:46 10,1 C 45 % 1012,1 hPa 0,0 l/m 7,2 km/h (2 Bft) S 180 -1,3 C 10,1 C
17.04.2012 13:51 10,0 C 44 % 1012,1 hPa 0,0 l/m 9,0 km/h (2 Bft) W-SW 247 -1,7 C 8,8 C
17.04.2012 13:56 10,1 C 45 % 1012,0 hPa 0,0 l/m 0,0 km/h (0 Bft) W-SW 247 -1,3 C 10,1 C
17.04.2012 14:01 10,4 C 44 % 1011,9 hPa 0,0 l/m 10,1 km/h (2 Bft) W-SW 247 -1,3 C 10,4 C
17.04.2012 14:06 10,5 C 44 % 1011,8 hPa 0,0 l/m 13,3 km/h (3 Bft) S-SW 202 -1,2 C 10,5 C
17.04.2012 14:11 10,4 C 44 % 1011,8 hPa 0,0 l/m 7,6 km/h (2 Bft) W 270 -1,3 C 10,4 C
17.04.2012 14:16 10,6 C 44 % 1011,6 hPa 0,0 l/m 4,3 km/h (1 Bft) S 180 -1,1 C 10,6 C
17.04.2012 14:21 10,8 C 44 % 1011,5 hPa 0,0 l/m 2,5 km/h (1 Bft) SW 225 -1,0 C 10,8 C
17.04.2012 14:26 11,1 C 44 % 1011,5 hPa 0,0 l/m 21,6 km/h (4 Bft) S 180 -0,7 C 11,1 C
17.04.2012 14:31 11,1 C 42 % 1011,5 hPa 0,0 l/m 12,6 km/h (3 Bft) S-SO 157 -1,3 C 11,1 C
17.04.2012 14:36 11,1 C 42 % 1011,3 hPa 0,0 l/m 7,6 km/h (2 Bft) S-SW 202 -1,3 C 11,1 C
17.04.2012 14:41 11,0 C 42 % 1011,3 hPa 0,0 l/m 11,5 km/h (2 Bft) S-SW 202 -1,4 C 11,0 C
17.04.2012 14:46 10,9 C 43 % 1011,3 hPa 0,0 l/m 10,4 km/h (2 Bft) S-SW 202 -1,2 C 10,9 C
17.04.2012 14:51 10,9 C 43 % 1011,2 hPa 0,0 l/m 6,5 km/h (2 Bft) W-SW 247 -1,2 C 10,9 C
17.04.2012 14:56 11,0 C 43 % 1011,1 hPa 0,0 l/m 6,8 km/h (2 Bft) W-SW 247 -1,1 C 11,0 C
17.04.2012 15:01 11,2 C 43 % 1011,0 hPa 0,0 l/m 12,2 km/h (2 Bft) S-SW 202 -0,9 C 11,2 C
17.04.2012 15:06 11,2 C 42 % 1010,9 hPa 0,0 l/m 16,2 km/h (3 Bft) SW 225 -1,2 C 11,2 C
17.04.2012 15:11 11,5 C 42 % 1010,8 hPa 0,0 l/m 11,9 km/h (2 Bft) SO 135 -1,0 C 11,5 C
17.04.2012 15:16 11,7 C 41 % 1010,7 hPa 0,0 l/m 4,0 km/h (1 Bft) S-SW 202 -1,1 C 11,7 C
17.04.2012 15:21 11,6 C 41 % 1010,6 hPa 0,0 l/m 7,6 km/h (2 Bft) SW 225 -1,2 C 11,6 C
17.04.2012 15:26 11,8 C 42 % 1010,4 hPa 0,0 l/m 6,5 km/h (2 Bft) S 180 -0,7 C 11,8 C
17.04.2012 15:31 11,8 C 41 % 1010,3 hPa 0,0 l/m 13,3 km/h (3 Bft) S 180 -1,0 C 11,8 C
17.04.2012 15:36 11,8 C 41 % 1010,3 hPa 0,0 l/m 4,0 km/h (1 Bft) SO 135 -1,0 C 11,8 C
17.04.2012 15:41 11,8 C 41 % 1010,2 hPa 0,0 l/m 4,0 km/h (1 Bft) W-SW 247 -1,0 C 11,8 C
17.04.2012 15:46 11,8 C 41 % 1009,9 hPa 0,0 l/m 19,4 km/h (3 Bft) S-SW 202 -1,0 C 11,8 C
17.04.2012 15:51 11,8 C 41 % 1009,9 hPa 0,0 l/m 13,0 km/h (3 Bft) S 180 -1,0 C 11,8 C
17.04.2012 15:56 11,8 C 40 % 1009,7 hPa 0,0 l/m 10,8 km/h (2 Bft) SW 225 -1,3 C 11,8 C
17.04.2012 16:01 11,9 C 40 % 1009,7 hPa 0,0 l/m 16,2 km/h (3 Bft) S-SW 202 -1,3 C 11,9 C
17.04.2012 16:06 11,9 C 40 % 1009,6 hPa 0,0 l/m 10,4 km/h (2 Bft) SO 135 -1,3 C 11,9 C
17.04.2012 16:11 11,9 C 40 % 1009,5 hPa 0,0 l/m 2,5 km/h (1 Bft) S 180 -1,3 C 11,9 C
17.04.2012 16:16 12,1 C 40 % 1009,3 hPa 0,0 l/m 8,6 km/h (2 Bft) S-SW 202 -1,1 C 12,1 C
17.04.2012 16:21 12,2 C 39 % 1009,2 hPa 0,0 l/m 9,7 km/h (2 Bft) SW 225 -1,3 C 12,2 C
17.04.2012 16:26 12,1 C 40 % 1009,1 hPa 0,0 l/m 12,6 km/h (3 Bft) S 180 -1,1 C 12,1 C
17.04.2012 16:31 12,1 C 39 % 1009,1 hPa 0,0 l/m 9,0 km/h (2 Bft) S-SO 157 -1,4 C 12,1 C
17.04.2012 16:36 11,9 C 39 % 1009,0 hPa 0,0 l/m 10,1 km/h (2 Bft) S 180 -1,6 C 11,9 C
17.04.2012 16:41 11,9 C 40 % 1008,9 hPa 0,0 l/m 4,0 km/h (1 Bft) S 180 -1,3 C 11,9 C
17.04.2012 16:46 11,9 C 39 % 1008,8 hPa 0,0 l/m 6,8 km/h (2 Bft) SO 135 -1,6 C 11,9 C
17.04.2012 16:51 11,8 C 39 % 1008,8 hPa 0,0 l/m 7,2 km/h (2 Bft) SO 135 -1,7 C 11,8 C
17.04.2012 16:56 11,8 C 39 % 1008,7 hPa 0,0 l/m 8,3 km/h (2 Bft) S-SO 157 -1,7 C 11,8 C
17.04.2012 17:01 11,7 C 39 % 1008,8 hPa 0,0 l/m 6,8 km/h (2 Bft) SO 135 -1,8 C 11,7 C
17.04.2012 17:06 11,7 C 40 % 1008,6 hPa 0,0 l/m 11,9 km/h (2 Bft) S 180 -1,4 C 11,7 C
17.04.2012 17:11 11,8 C 40 % 1008,4 hPa 0,0 l/m 9,4 km/h (2 Bft) S-SO 157 -1,3 C 11,8 C
17.04.2012 17:16 11,8 C 40 % 1008,6 hPa 0,0 l/m 7,9 km/h (2 Bft) SO 135 -1,3 C 11,8 C
17.04.2012 17:21 11,8 C 40 % 1008,4 hPa 0,0 l/m 10,8 km/h (2 Bft) S 180 -1,3 C 11,8 C
17.04.2012 17:26 11,9 C 40 % 1008,5 hPa 0,0 l/m 9,7 km/h (2 Bft) SW 225 -1,3 C 11,9 C
17.04.2012 17:31 11,8 C 39 % 1008,3 hPa 0,0 l/m 22,3 km/h (4 Bft) S-SO 157 -1,7 C 11,8 C
17.04.2012 17:36 11,8 C 39 % 1008,1 hPa 0,0 l/m 6,1 km/h (2 Bft) S-SO 157 -1,7 C 11,8 C
17.04.2012 17:41 11,8 C 40 % 1008,1 hPa 0,0 l/m 9,4 km/h (2 Bft) S-SO 157 -1,3 C 11,8 C
17.04.2012 17:46 11,8 C 40 % 1008,0 hPa 0,0 l/m 6,5 km/h (2 Bft) SW 225 -1,3 C 11,8 C
17.04.2012 17:51 11,7 C 40 % 1007,8 hPa 0,0 l/m 5,0 km/h (1 Bft) S-SO 157 -1,4 C 11,7 C
17.04.2012 17:56 11,6 C 40 % 1007,9 hPa 0,0 l/m 18,7 km/h (3 Bft) S 180 -1,5 C 11,6 C
17.04.2012 18:01 11,6 C 40 % 1007,7 hPa 0,0 l/m 5,4 km/h (1 Bft) S-SO 157 -1,5 C 11,6 C
17.04.2012 18:06 11,4 C 40 % 1007,7 hPa 0,0 l/m 5,4 km/h (1 Bft) SW 225 -1,7 C 11,4 C
17.04.2012 18:11 11,3 C 41 % 1007,5 hPa 0,0 l/m 4,0 km/h (1 Bft) S-SO 157 -1,5 C 11,3 C
17.04.2012 18:16 11,3 C 41 % 1007,6 hPa 0,0 l/m 5,0 km/h (1 Bft) S-SO 157 -1,5 C 11,3 C
17.04.2012 18:21 11,2 C 41 % 1007,5 hPa 0,0 l/m 4,3 km/h (1 Bft) S 180 -1,6 C 11,2 C
17.04.2012 18:26 11,1 C 41 % 1007,4 hPa 0,0 l/m 3,2 km/h (1 Bft) S 180 -1,6 C 11,1 C
17.04.2012 18:31 11,1 C 41 % 1007,4 hPa 0,0 l/m 6,8 km/h (2 Bft) S 180 -1,6 C 11,1 C
17.04.2012 18:36 10,9 C 41 % 1007,4 hPa 0,0 l/m 7,9 km/h (2 Bft) SO 135 -1,8 C 10,9 C
17.04.2012 18:41 10,9 C 41 % 1007,3 hPa 0,0 l/m 10,8 km/h (2 Bft) S-SO 157 -1,8 C 10,9 C
17.04.2012 18:46 10,8 C 42 % 1007,1 hPa 0,0 l/m 6,1 km/h (2 Bft) S 180 -1,6 C 10,8 C
17.04.2012 18:51 10,8 C 42 % 1007,1 hPa 0,0 l/m 4,0 km/h (1 Bft) S-SO 157 -1,6 C 10,8 C
17.04.2012 18:56 10,8 C 42 % 1007,1 hPa 0,0 l/m 2,5 km/h (1 Bft) SO 135 -1,6 C 10,8 C
17.04.2012 19:01 10,8 C 43 % 1006,9 hPa 0,0 l/m 3,6 km/h (1 Bft) O-SO 112 -1,3 C 10,8 C
17.04.2012 19:06 10,9 C 43 % 1006,9 hPa 0,0 l/m 2,9 km/h (1 Bft) S 180 -1,2 C 10,9 C
17.04.2012 19:11 10,9 C 42 % 1006,9 hPa 0,0 l/m 7,9 km/h (2 Bft) S-SO 157 -1,5 C 10,9 C
17.04.2012 19:16 10,9 C 42 % 1006,7 hPa 0,0 l/m 11,5 km/h (2 Bft) S-SO 157 -1,5 C 10,9 C
17.04.2012 19:21 10,9 C 42 % 1006,6 hPa 0,0 l/m 12,6 km/h (3 Bft) S-SO 157 -1,5 C 10,9 C
17.04.2012 19:26 10,9 C 42 % 1006,6 hPa 0,0 l/m 5,0 km/h (1 Bft) S-SO 157 -1,5 C 10,9 C
17.04.2012 19:31 10,9 C 42 % 1006,5 hPa 0,0 l/m 8,3 km/h (2 Bft) SO 135 -1,5 C 10,9 C
17.04.2012 19:36 10,8 C 42 % 1006,5 hPa 0,0 l/m 5,0 km/h (1 Bft) SO 135 -1,6 C 10,8 C
17.04.2012 19:41 10,6 C 42 % 1006,5 hPa 0,0 l/m 9,7 km/h (2 Bft) S 180 -1,8 C 10,6 C
17.04.2012 19:46 10,5 C 42 % 1006,4 hPa 0,0 l/m 10,8 km/h (2 Bft) SO 135 -1,9 C 10,5 C
17.04.2012 19:51 10,3 C 42 % 1006,3 hPa 0,0 l/m 5,0 km/h (1 Bft) SO 135 -2,0 C 10,3 C
17.04.2012 19:56 10,1 C 42 % 1006,2 hPa 0,0 l/m 5,0 km/h (1 Bft) SO 135 -2,2 C 10,1 C
17.04.2012 20:01 9,9 C 43 % 1006,3 hPa 0,0 l/m 2,2 km/h (1 Bft) O-SO 112 -2,1 C 9,9 C
17.04.2012 20:06 9,8 C 43 % 1006,2 hPa 0,0 l/m 4,7 km/h (1 Bft) SO 135 -2,2 C 9,6 C
17.04.2012 20:11 9,5 C 43 % 1006,2 hPa 0,0 l/m 3,2 km/h (1 Bft) SO 135 -2,4 C 9,5 C
17.04.2012 20:16 9,4 C 44 % 1006,2 hPa 0,0 l/m 4,3 km/h (1 Bft) SO 135 -2,2 C 9,4 C
17.04.2012 20:21 9,3 C 44 % 1006,1 hPa 0,0 l/m 4,0 km/h (1 Bft) S-SO 157 -2,3 C 9,3 C
17.04.2012 20:26 9,1 C 44 % 1006,3 hPa 0,0 l/m 4,7 km/h (1 Bft) SO 135 -2,5 C 8,8 C
17.04.2012 20:31 8,9 C 44 % 1006,0 hPa 0,0 l/m 3,2 km/h (1 Bft) S 180 -2,7 C 8,9 C
17.04.2012 20:36 8,8 C 44 % 1006,0 hPa 0,0 l/m 8,3 km/h (2 Bft) SO 135 -2,8 C 7,5 C
17.04.2012 20:41 8,7 C 45 % 1006,1 hPa 0,0 l/m 6,1 km/h (2 Bft) SO 135 -2,6 C 7,9 C
17.04.2012 20:46 8,5 C 45 % 1006,0 hPa 0,0 l/m 4,3 km/h (1 Bft) SO 135 -2,7 C 8,5 C
17.04.2012 20:51 8,4 C 46 % 1005,9 hPa 0,0 l/m 4,0 km/h (1 Bft) SO 135 -2,5 C 8,4 C
17.04.2012 20:56 8,2 C 46 % 1005,9 hPa 0,0 l/m 0,0 km/h (0 Bft) SO 135 -2,7 C 8,2 C
17.04.2012 21:01 8,0 C 47 % 1005,9 hPa 0,0 l/m 5,8 km/h (2 Bft) SO 135 -2,6 C 7,2 C
17.04.2012 21:06 7,9 C 47 % 1005,9 hPa 0,0 l/m 3,2 km/h (1 Bft) O-SO 112 -2,7 C 7,9 C
17.04.2012 21:11 7,8 C 48 % 1005,9 hPa 0,0 l/m 9,0 km/h (2 Bft) S-SO 157 -2,5 C 6,2 C
17.04.2012 21:16 7,6 C 48 % 1005,8 hPa 0,0 l/m 5,8 km/h (2 Bft) SO 135 -2,7 C 6,8 C
17.04.2012 21:21 7,5 C 48 % 1005,9 hPa 0,0 l/m 10,8 km/h (2 Bft) SO 135 -2,8 C 5,5 C
17.04.2012 21:26 7,4 C 49 % 1005,8 hPa 0,0 l/m 6,5 km/h (2 Bft) O-SO 112 -2,6 C 6,3 C
17.04.2012 21:31 7,3 C 49 % 1005,8 hPa 0,0 l/m 5,8 km/h (2 Bft) O-SO 112 -2,7 C 6,4 C
17.04.2012 21:36 7,2 C 49 % 1005,7 hPa 0,0 l/m 9,4 km/h (2 Bft) S-SO 157 -2,8 C 5,4 C
17.04.2012 21:41 7,2 C 49 % 1005,7 hPa 0,0 l/m 4,0 km/h (1 Bft) O-SO 112 -2,8 C 7,2 C
17.04.2012 21:46 7,1 C 50 % 1005,7 hPa 0,0 l/m 6,5 km/h (2 Bft) SO 135 -2,6 C 6,0 C
17.04.2012 21:51 7,0 C 50 % 1005,7 hPa 0,0 l/m 5,4 km/h (1 Bft) O-SO 112 -2,7 C 6,2 C
17.04.2012 21:56 6,9 C 51 % 1005,7 hPa 0,0 l/m 5,4 km/h (1 Bft) SO 135 -2,5 C 6,1 C
17.04.2012 22:01 6,8 C 51 % 1005,6 hPa 0,0 l/m 2,5 km/h (1 Bft) O 90 -2,6 C 6,8 C
17.04.2012 22:06 6,6 C 51 % 1005,6 hPa 0,0 l/m 7,6 km/h (2 Bft) O 90 -2,8 C 5,1 C
17.04.2012 22:11 6,6 C 52 % 1005,5 hPa 0,0 l/m 4,0 km/h (1 Bft) SO 135 -2,5 C 6,6 C
17.04.2012 22:16 6,6 C 52 % 1005,5 hPa 0,0 l/m 5,0 km/h (1 Bft) O 90 -2,5 C 5,9 C
17.04.2012 22:21 6,5 C 52 % 1005,3 hPa 0,0 l/m 5,0 km/h (1 Bft) O-SO 112 -2,6 C 5,8 C
17.04.2012 22:26 6,4 C 52 % 1005,4 hPa 0,0 l/m 12,6 km/h (3 Bft) SO 135 -2,7 C 3,8 C
17.04.2012 22:31 6,4 C 52 % 1005,3 hPa 0,0 l/m 5,0 km/h (1 Bft) SO 135 -2,7 C 5,7 C
17.04.2012 22:36 6,3 C 53 % 1005,3 hPa 0,0 l/m 4,0 km/h (1 Bft) SO 135 -2,6 C 6,3 C
17.04.2012 22:41 6,2 C 53 % 1005,2 hPa 0,0 l/m 7,6 km/h (2 Bft) O-SO 112 -2,7 C 4,6 C
17.04.2012 22:46 6,1 C 53 % 1005,4 hPa 0,0 l/m 3,6 km/h (1 Bft) O-SO 112 -2,7 C 6,1 C
17.04.2012 22:51 6,1 C 54 % 1005,2 hPa 0,0 l/m 7,6 km/h (2 Bft) SO 135 -2,5 C 4,5 C
17.04.2012 22:56 5,9 C 54 % 1005,2 hPa 0,0 l/m 6,1 km/h (2 Bft) O-SO 112 -2,7 C 4,7 C
17.04.2012 23:01 5,9 C 54 % 1005,2 hPa 0,0 l/m 5,4 km/h (1 Bft) SO 135 -2,7 C 5,0 C
17.04.2012 23:06 5,9 C 55 % 1005,1 hPa 0,0 l/m 4,3 km/h (1 Bft) O-SO 112 -2,4 C 5,9 C
17.04.2012 23:11 5,8 C 55 % 1005,1 hPa 0,0 l/m 8,3 km/h (2 Bft) O 90 -2,5 C 4,0 C
17.04.2012 23:16 5,8 C 55 % 1004,9 hPa 0,0 l/m 3,6 km/h (1 Bft) O-SO 112 -2,5 C 5,8 C
17.04.2012 23:21 5,6 C 56 % 1005,0 hPa 0,0 l/m 7,2 km/h (2 Bft) SO 135 -2,5 C 4,1 C
17.04.2012 23:26 5,6 C 56 % 1004,8 hPa 0,0 l/m 3,2 km/h (1 Bft) O-SO 112 -2,5 C 5,6 C
17.04.2012 23:31 5,6 C 56 % 1004,6 hPa 0,0 l/m 2,2 km/h (1 Bft) O 90 -2,5 C 5,6 C
17.04.2012 23:36 5,6 C 56 % 1004,6 hPa 0,0 l/m 6,5 km/h (2 Bft) O 90 -2,5 C 4,3 C
17.04.2012 23:41 5,5 C 57 % 1004,7 hPa 0,0 l/m 3,6 km/h (1 Bft) O 90 -2,3 C 5,5 C
17.04.2012 23:46 5,4 C 57 % 1004,8 hPa 0,0 l/m 5,0 km/h (1 Bft) SO 135 -2,4 C 4,5 C
17.04.2012 23:51 5,4 C 57 % 1004,5 hPa 0,0 l/m 5,8 km/h (2 Bft) O-SO 112 -2,4 C 4,2 C
17.04.2012 23:56 5,4 C 57 % 1004,5 hPa 0,0 l/m 5,0 km/h (1 Bft) O-SO 112 -2,4 C 4,5 C
_ Min-Zeit 06:41 16:21 23:51 - 02:36 - - 22:06 05:56
Minimum _ 1,1 C 39 % 1004,5 hPa - 0,0 km/h (0 Bft) - - -2,8 C -2,4 C
_ Max-Zeit 16:21 06:46 00:41 00:01 12:21 - - 10:46 16:21
Maximum _ 12,2 C 80 % 1018,1 hPa 0,0 l/m 24,8 km/h
W (4 Bft)
- - 1,1 C 12,2 C
Durchschnitt _ 6,6 C 58 % 1012,4 hPa #0,0 l/m 7,6 km/h (2 Bft) W-SW - -1,4 C 5,6 C
(c) by David Heller